Cleveland Burke, OH

11:56 PM EDT on April 25, 2018 (GMT -0400)
Burke Lakefront

Weather History for KBKL - January, 2001

Change the Weather History Date:

Wednesday, January 3, 2001

  Actual Average Record
Temperature  
Mean Temperature 19 °F -  
Max Temperature 24 °F 36 °F 62 °F (2004)
Min Temperature 14 °F 25 °F 6 °F (2018)
Degree Days  
Heating Degree Days 46    
Moisture  
Dew Point 16 °F    
Average Humidity 82    
Maximum Humidity 93    
Minimum Humidity 68    
Precipitation  
Precipitation 0.01 in - - ()
Sea Level Pressure  
Sea Level Pressure 30.15 in    
Wind  
Wind Speed 15 mph (SW)    
Max Wind Speed 22 mph    
Max Gust Speed 31 mph    
Visibility 6 miles    
Events Rain , Snow    
Averages and records for this station are not official NWS values.
T = Trace of Precipitation, MM = Missing Value Source: NWS Daily Summary

Daily Weather History Graph

Daily Weather History Graph

Search for Another Location

Airport or City:

Astronomy

Jan. 03, 2001 Rise Set
Actual Time 7:53 AM EST 5:09 PM EST
Civil Twilight 7:22 AM EST 5:40 PM EST
Nautical Twilight 6:47 AM EST 6:15 PM EST
Astronomical Twilight 6:13 AM EST 6:49 PM EST
Moon 12:51 PM EST (1/3) 12:48 AM EST (1/3)
Length of Visible Light 10h 18m
Length of Day
9h 16m
First Quarter, 58% of the Moon is Illuminated
Jan 3
First Quarter
Jan 9
Full
Jan 16
Last Quarter
Jan 24
New
Feb 1
First Quarter

Hourly Weather History & Observations

Time (EST) Temp. Windchill Dew Point Humidity Pressure Visibility Wind Dir Wind Speed Gust Speed Precip Events Conditions
12:53 AM 16.0 °F 2.3 °F 10.9 °F 81% 30.45 in 9.0 mi SW 12.7 mph - N/A   Clear
1:53 AM 16.0 °F 1.7 °F 10.0 °F 77% 30.43 in 10.0 mi SW 13.8 mph - N/A   Clear
2:53 AM 15.1 °F 1.1 °F 9.0 °F 77% 30.42 in 10.0 mi SW 12.7 mph - N/A   Partly Cloudy
3:53 AM 14.0 °F -1.4 °F 9.0 °F 80% 30.40 in 10.0 mi SW 15.0 mph - N/A   Clear
4:53 AM 14.0 °F -0.2 °F 8.1 °F 77% 30.38 in 10.0 mi SSW 12.7 mph - N/A   Clear
5:53 AM 14.0 °F 1.2 °F 9.0 °F 80% 30.36 in 10.0 mi SSW 10.4 mph - N/A   Clear
6:53 AM 15.1 °F -0.6 °F 10.0 °F 80% 30.35 in 10.0 mi SSW 16.1 mph - N/A   Clear
7:53 AM 15.1 °F 0.5 °F 10.0 °F 80% 30.32 in 8.0 mi SSW 13.8 mph - N/A   Clear
8:53 AM 15.1 °F 0.5 °F 10.0 °F 80% 30.30 in 8.0 mi South 13.8 mph - N/A   Clear
9:53 AM 18.0 °F 3.1 °F 10.9 °F 74% 30.28 in 10.0 mi SSW 16.1 mph - N/A   Clear
10:53 AM 19.9 °F 5.2 °F 10.9 °F 68% 30.25 in 10.0 mi SSW 17.3 mph 25.3 mph N/A   Clear
11:53 AM 21.9 °F 6.2 °F 12.9 °F 68% 30.18 in 10.0 mi SSW 21.9 mph 31.1 mph N/A   Scattered Clouds
12:53 PM 21.9 °F 8.2 °F 14.0 °F 72% 30.15 in 10.0 mi SSW 16.1 mph - N/A   Overcast
1:33 PM 23.0 °F 8.7 °F 14.0 °F 68% 30.09 in 8.0 mi South 18.4 mph - 0.00 in Snow Light Snow
1:53 PM 23.0 °F 8.3 °F 15.1 °F 72% 30.10 in 10.0 mi SSW 19.6 mph 26.5 mph 0.00 in   Overcast
2:53 PM 24.1 °F 10.1 °F 15.1 °F 69% 30.08 in 10.0 mi SW 18.4 mph 28.8 mph 0.00 in   Overcast
3:43 PM 23.0 °F 7.6 °F 17.6 °F 80% 30.04 in 2.5 mi SSW 21.9 mph 31.1 mph 0.00 in Rain Light Freezing Rain
3:53 PM 23.0 °F 9.6 °F 19.0 °F 85% 30.08 in 2.5 mi SW 16.1 mph - 0.00 in Snow Light Snow
4:05 PM 23.0 °F 9.2 °F 19.4 °F 86% 30.05 in 1.5 mi SSW 17.3 mph 24.2 mph 0.00 in Snow Light Snow
4:45 PM 21.2 °F 5.2 °F 17.6 °F 86% 30.04 in 2.5 mi SSW 21.9 mph 26.5 mph 0.00 in Snow Light Snow
4:53 PM 21.9 °F 6.9 °F 18.0 °F 85% 30.08 in 1.5 mi SSW 19.6 mph 26.5 mph 0.00 in Snow Light Snow
5:07 PM 21.2 °F 7.3 °F 17.6 °F 86% 30.04 in 2.5 mi SSW 16.1 mph - 0.00 in Snow Light Snow
5:53 PM 21.9 °F 9.2 °F 18.0 °F 85% 30.07 in 2.5 mi SW 13.8 mph - 0.00 in Snow Light Snow
5:58 PM 21.2 °F 7.8 °F 17.6 °F 86% 30.04 in 1.8 mi SW 15.0 mph - 0.00 in Snow Light Snow
6:17 PM 21.2 °F 7.8 °F 17.6 °F 86% 30.04 in 3.0 mi SSW 15.0 mph - 0.00 in Snow Light Snow
6:25 PM 21.2 °F 6.4 °F 17.6 °F 86% 30.04 in 1.8 mi SW 18.4 mph - 0.00 in Snow Light Snow
6:36 PM 21.2 °F 6.8 °F 19.4 °F 93% 30.04 in 1.5 mi SW 17.3 mph - 0.00 in Snow Light Snow
6:40 PM 21.2 °F 6.4 °F 19.4 °F 93% 30.04 in 3.0 mi SW 18.4 mph 24.2 mph 0.00 in Snow Light Snow
6:53 PM 21.9 °F 7.8 °F 19.0 °F 89% 30.06 in 4.0 mi SW 17.3 mph - 0.00 in Snow Light Snow
7:53 PM 23.0 °F 9.6 °F 19.9 °F 88% 30.06 in 6.0 mi SW 16.1 mph - 0.01 in Snow Light Snow
8:21 PM 23.0 °F 8.7 °F 19.4 °F 86% 30.02 in 6.0 mi SW 18.4 mph - 0.00 in Snow Light Snow
8:53 PM 23.0 °F 9.6 °F 21.0 °F 92% 30.05 in 5.0 mi SW 16.1 mph - 0.00 in Snow Light Snow
9:53 PM 23.0 °F 9.2 °F 21.0 °F 92% 30.05 in 3.0 mi SW 17.3 mph - 0.00 in Snow Light Snow
10:53 PM 24.1 °F 12.5 °F 21.9 °F 91% 30.05 in 3.0 mi SW 12.7 mph - 0.00 in Snow Light Snow
11:21 PM 24.8 °F 11.9 °F 21.2 °F 86% 30.02 in 3.0 mi WSW 16.1 mph - 0.00 in Snow Light Snow
11:29 PM 24.8 °F 13.4 °F 21.2 °F 86% 30.02 in 2.0 mi WSW 12.7 mph - 0.00 in Snow Light Snow
11:36 PM 24.8 °F 12.4 °F 21.2 °F 86% 30.02 in 3.0 mi SW 15.0 mph - 0.00 in Snow Light Snow
11:53 PM 24.1 °F 11.0 °F 21.9 °F 91% 30.05 in 3.0 mi WSW 16.1 mph - 0.00 in Snow Light Snow